Dewpoint
45 46 46 46 47 47 48 48 47 46 46 46 46 46 45 45 41 33 30 33 33 27 28 32 31 28 28 31 27 30 27 33 33 31 33 31 30 32 33 31 29 30 29 26 26 21 20 30 28 24 27 32 33 34
44 45 46 46 47 47 48 48 47 46 46 46 46 46 46 45 42 36 30 34 35 30 24 32 34 35 30 32 30 30 32 34 35 33 32 31 32 34 32 29 35 28 31 30 30 27 31 32 29 29 31 29 34 35
42 45 45 45 46 48 48 48 47 46 46 46 46 46 46 45 43 37 32 33 32 28 26 26 25 27 34 33 32 25 30 35 36 37 32 32 28 35 30 30 32 32 37 34 30 30 32 34 35 32 32 32 35 36
40 42 45 45 46 47 47 47 47 46 46 46 46 46 46 45 43 38 33 34 32 30 24 24 30 30 33 34 34 31 30 35 37 37 33 28 27 35 32 34 32 37 39 36 34 34 36 33 34 35 34 36 36 36
40 41 44 45 46 46 47 47 46 46 46 46 46 46 46 45 42 38 35 35 34 29 21 24 29 29 29 32 33 34 34 32 31 31 32 30 33 34 33 35 31 36 37 35 35 36 35 35 36 37 37 36 37 35
43 42 45 45 45 46 46 46 46 45 45 46 46 46 45 45 42 35 26 30 36 35 26 21 26 28 29 29 29 30 31 32 32 31 33 34 34 32 29 28 31 34 35 40 40 39 35 35 38 37 36 37 37 35
44 43 44 45 45 45 45 46 46 45 45 45 46 45 45 42 33 28 26 32 39 35 29 24 22 25 30 28 28 30 32 32 32 30 33 31 32 34 33 27 30 33 36 39 36 29 33 37 35 38 38 37 38 35
44 44 43 45 46 45 45 45 45 45 45 45 45 45 42 40 38 35 36 40 37 31 30 21 22 23 29 27 23 29 28 32 30 31 34 33 31 31 26 25 27 27 28 28 25 24 30 34 40 40 36 34 34 35
44 43 42 44 46 45 45 45 45 45 45 44 44 42 38 35 32 30 40 40 39 30 18 25 20 16 28 28 30 29 30 26 29 30 30 32 30 28 28 29 29 28 29 29 30 35 38 38 39 41 39 37 38 35
43 43 43 45 44 44 45 44 44 44 43 41 33 29 28 32 37 38 31 27 30 33 33 25 26 23 24 24 24 25 30 25 24 28 30 26 26 26 26 28 33 33 33 34 35 35 36 38 38 37 38 38 37 33
43 43 44 45 44 45 44 44 43 42 38 30 28 25 30 37 31 29 24 23 20 21 27 25 25 21 23 18 19 27 24 29 25 25 27 27 26 28 30 33 35 34 30 28 27 35 38 37 37 37 36 38 37 34
43 43 45 45 44 44 43 42 39 34 31 30 33 35 35 28 26 20 17 21 21 18 23 24 24 24 22 25 23 25 28 24 22 32 28 25 26 36 37 37 37 37 34 31 30 30 30 32 35 35 36 36 35 35
42 43 45 44 44 43 42 39 36 37 37 34 30 28 24 26 16 16 9 17 18 23 25 25 23 23 23 26 23 25 24 21 26 26 27 27 35 36 37 38 37 36 36 35 35 36 36 37 38 38 37 37 35 34
42 44 44 44 43 42 39 38 39 37 31 25 20 20 17 17 19 18 16 17 21 24 26 27 24 22 25 23 24 20 23 26 16 14 25 27 30 34 35 36 37 36 36 35 35 34 34 34 34 35 37 35 33 32
42 44 44 43 43 40 38 39 38 35 30 23 21 11 19 20 22 22 23 22 23 27 30 28 26 24 22 23 23 22 17 18 23 20 25 29 31 32 32 32 35 35 34 35 34 32 30 30 31 32 34 34 32 31
42 43 41 43 41 39 39 37 36 34 29 24 25 21 24 22 20 23 25 24 28 28 32 32 27 25 24 27 22 19 20 18 19 23 28 30 29 30 30 31 34 36 36 34 32 31 30 28 30 31 32 31 31 31
39 34 42 42 39 40 37 35 33 28 26 24 21 26 23 22 21 23 25 26 31 29 24 25 19 21 29 25 21 23 24 23 24 26 27 28 29 29 30 31 33 35 34 31 30 29 29 30 27 27 27 29 29 29
37 41 42 40 39 37 34 34 28 24 23 25 22 23 24 24 24 25 26 29 30 27 27 26 29 26 23 21 22 27 27 28 27 27 29 29 30 30 30 30 31 33 32 30 29 28 28 27 29 28 28 28 27 27
40 41 41 39 36 32 30 30 27 22 23 26 25 25 24 24 26 25 26 29 31 32 28 27 25 23 23 25 25 26 27 26 25 25 26 27 28 29 30 30 31 31 31 30 29 28 28 28 28 27 27 27 25 25
42 41 39 38 34 29 26 28 30 25 23 24 26 23 23 23 24 25 25 28 31 28 26 25 25 25 24 25 26 26 25 26 27 25 24 26 27 28 29 29 30 30 30 32 30 28 27 27 27 27 27 26 25 24
39 38 38 36 33 31 27 26 26 25 24 22 24 23 21 23 22 22 22 28 28 27 26 27 26 27 27 27 26 26 26 27 26 26 24 25 27 28 29 30 30 27 31 33 32 29 27 25 26 27 26 27 26 26
35 37 33 35 29 28 26 28 24 25 21 20 23 22 22 17 19 23 23 22 24 23 27 26 27 27 27 27 27 27 27 27 28 27 26 26 27 28 28 30 28 32 32 33 32 30 28 26 26 26 26 26 25 23
36 34 32 31 26 23 22 27 22 22 13 16 23 21 20 21 24 25 18 23 23 24 24 24 25 25 24 25 27 27 28 27 27 27 27 28 28 29 30 30 31 33 33 34 32 29 27 25 25 26 24 24 22 21
35 30 26 23 21 17 24 19 22 22 22 19 18 10 16 20 25 21 19 21 24 25 25 24 24 24 25 26 26 26 28 28 27 28 28 28 28 28 30 31 33 35 35 33 30 28 27 27 25 23 22 22 21 20
24 23 21 11 19 13 10 15 19 17 8 10 13 9 13 21 12 11 15 17 21 23 23 24 25 25 25 27 28 30 30 29 29 28 28 29 29 30 31 33 34 34 32 29 27 26 26 24 23 22 21 21 21 20
18 21 16 12 11 12 14 8 6 8 7 7 13 17 20 12 9 10 14 19 19 22 20 23 25 27 30 30 30 30 30 30 30 30 30 30 31 31 31 32 32 29 32 31 27 25 24 23 23 22 22 23 22 20
16 17 23 22 21 21 15 15 19 13 5 7 8 7 7 5 4 15 22 24 24 26 26 28 29 29 29 29 30 31 32 31 32 32 33 31 31 33 34 33 30 30 31 30 29 27 24 23 23 23 22 22 21 20
18 21 15 19 17 19 7 11 9 9 12 18 13 7 6 7 10 18 21 25 28 29 30 31 32 32 32 31 30 30 28 27 30 31 31 31 31 31 31 31 31 31 31 30 28 27 26 24 23 23 21 21 21 21
21 23 18 6 8 10 8 10 11 16 19 19 11 8 11 18 20 20 21 25 29 29 29 30 31 31 31 30 28 29 29 31 30 29 29 31 28 28 29 30 30 29 28 28 28 27 26 25 24 23 23 22 21 20
16 22 11 2 6 8 13 16 13 13 22 22 22 22 23 22 24 25 25 26 26 26 28 29 30 27 27 25 26 24 27 32 32 32 31 30 30 29 30 29 28 28 28 26 26 25 26 24 23 21 20 19 19 18
23 19 14 11 7 8 8 13 15 20 22 26 27 25 23 21 22 25 26 27 27 28 21 25 26 23 23 24 30 30 30 32 32 32 30 31 30 30 29 29 28 28 27 26 24 23 22 21 21 20 19 18 18 17
11 10 10 10 12 16 24 11 8 20 22 19 13 18 23 19 16 20 18 17 18 23 24 21 20 25 25 30 32 33 32 32 32 32 31 31 30 30 29 29 28 27 26 25 24 23 22 21 20 19 18 17 17 17
23 21 9 8 11 11 9 11 10 9 3 2 9 11 14 21 18 20 23 29 30 29 30 28 31 32 32 30 31 32 31 30 32 31 31 31 30 29 29 29 28 27 25 24 23 23 22 21 19 19 17 17 16 16
Lifted_Index
3 3 3 2 3 2 2 2 2 2 3 4 4 5 5 7 8 9 10 10 10 10 9 9 8 7 6 6 5 5 4 3 2 1 1 2 2 2 2 2 2 1 0 -0 -0 0 1 1 2 2 2 2 2 2
3 3 3 2 2 2 2 2 2 2 3 3 4 4 5 6 7 8 9 9 9 8 8 8 8 7 7 6 5 5 4 3 3 2 1 1 2 2 2 2 2 1 1 0 -0 0 0 1 1 1 1 1 2 2
3 3 3 2 2 2 2 2 2 2 3 3 3 4 4 5 6 7 8 8 8 7 7 7 7 7 7 7 6 6 5 4 3 3 2 2 2 2 2 2 2 1 1 1 0 0 0 -0 0 1 1 1 1 2
4 3 3 2 2 2 2 2 2 2 3 3 3 4 4 5 6 7 7 7 7 6 6 6 7 8 8 8 7 7 6 5 4 4 4 3 3 2 2 2 2 2 1 1 1 1 0 0 0 1 1 1 1 1
4 3 2 2 2 2 2 2 2 3 3 3 3 4 4 5 6 6 6 6 6 6 6 6 7 7 8 8 8 7 6 6 5 5 5 4 4 3 3 2 2 2 2 2 1 1 1 1 1 1 1 1 1 1
3 3 2 2 2 2 2 2 3 3 3 3 3 4 4 5 5 6 6 6 6 6 6 6 6 7 8 8 7 7 6 5 5 5 5 4 4 3 3 3 3 3 3 2 2 2 1 1 1 2 2 1 1 1
2 2 2 2 2 2 2 2 3 3 3 3 4 4 4 5 6 6 6 6 6 6 6 6 6 6 6 6 6 6 5 5 4 3 3 3 3 3 3 4 4 4 3 3 3 3 2 2 1 2 2 1 0 0
2 2 2 2 1 2 2 3 3 3 4 4 4 5 5 6 6 6 6 6 6 6 6 6 5 5 5 4 4 4 4 4 3 3 3 3 3 3 4 4 4 4 4 5 5 4 3 2 2 2 2 1 0 0
2 2 2 2 2 2 2 3 3 4 4 5 5 5 6 6 6 6 6 6 6 6 6 5 5 5 4 4 3 3 3 3 3 2 2 2 3 3 4 4 4 4 4 5 5 4 3 3 3 3 2 1 1 0
2 2 2 2 2 2 3 3 4 4 5 6 6 6 6 7 7 7 7 6 6 6 6 5 5 5 5 4 3 3 2 2 2 2 2 2 3 3 3 4 4 4 4 4 4 4 3 3 3 3 2 2 1 1
2 2 2 2 2 3 3 4 5 5 6 6 7 7 7 7 7 7 6 6 5 5 6 6 5 5 5 5 4 3 2 2 1 1 1 2 2 2 3 3 3 3 4 5 5 4 4 4 4 4 3 2 2 1
3 3 3 2 3 3 4 5 5 6 6 7 7 7 6 6 6 5 5 5 5 5 6 6 6 6 6 5 5 3 2 2 1 1 1 1 2 1 1 1 1 2 3 4 5 5 5 6 5 5 4 3 2 2
3 3 3 3 3 4 4 5 6 6 7 6 6 6 5 5 4 4 3 3 4 5 5 6 6 6 6 5 4 3 2 2 2 1 1 1 1 1 1 1 1 1 2 3 4 4 4 4 4 4 4 3 2 2
3 3 3 3 3 4 5 6 6 6 6 6 5 4 4 4 4 3 3 4 4 4 4 4 4 4 4 4 4 3 2 2 2 2 2 2 2 2 2 2 2 2 2 2 3 3 3 3 3 3 3 3 2 2
3 3 3 3 4 4 5 6 7 6 6 5 4 3 3 3 3 4 4 4 4 3 2 2 2 2 2 3 2 2 2 2 2 2 3 3 3 3 3 3 3 3 3 3 3 3 3 3 3 3 2 2 2 2
3 3 3 4 4 5 6 7 7 6 5 4 4 3 3 3 3 4 4 4 3 2 1 1 1 1 1 1 1 1 1 1 2 3 4 5 5 5 4 4 4 4 4 3 4 4 4 4 4 4 3 2 2 2
3 4 4 5 5 6 7 7 6 5 4 4 3 3 3 3 4 4 4 3 2 1 0 0 0 0 0 0 0 1 1 2 2 3 4 5 6 6 6 6 6 5 5 4 4 4 4 4 4 4 3 2 1 2
4 4 5 5 6 7 7 7 6 4 4 3 3 3 3 4 4 4 3 3 2 1 0 0 0 0 0 0 0 1 1 2 3 4 5 5 6 7 7 7 7 6 5 4 4 3 3 4 4 4 3 2 1 1
4 4 5 6 6 7 6 6 5 4 3 3 3 3 4 4 4 4 4 3 2 1 1 1 1 0 0 0 0 1 2 3 3 4 5 5 6 7 7 7 7 7 6 4 4 3 3 3 3 3 3 2 1 1
4 4 5 6 6 6 6 6 5 4 3 4 4 4 4 4 5 5 5 4 4 3 2 1 1 1 1 1 1 1 2 3 4 4 5 5 6 6 7 7 7 7 6 5 4 3 3 3 3 4 3 3 2 2
4 4 5 6 6 6 5 5 5 4 4 4 4 4 4 4 4 5 5 6 5 5 4 3 2 1 1 1 2 2 3 4 4 5 5 5 5 6 6 7 7 7 6 5 4 4 3 3 4 4 4 4 4 4
5 5 5 5 5 5 5 5 5 4 4 4 4 4 4 4 5 5 6 7 7 6 6 5 4 3 2 3 3 3 4 4 5 5 5 6 6 6 7 7 7 7 6 5 4 4 4 4 5 5 5 5 5 6
5 5 5 5 5 4 5 5 5 4 4 4 4 4 4 5 5 6 6 7 7 7 7 6 6 5 4 4 4 4 4 5 5 5 6 6 6 7 7 8 8 7 6 5 5 5 5 6 6 7 7 7 6 7
5 5 4 4 4 4 4 4 4 4 4 4 4 4 5 5 6 6 6 6 7 7 7 7 7 6 6 5 5 5 5 6 6 6 6 6 7 7 8 8 7 6 6 6 6 6 7 7 8 8 9 8 8 8
4 4 4 4 4 4 4 4 4 4 4 4 4 5 5 6 6 6 6 7 7 7 7 7 7 6 5 5 5 5 5 7 7 6 6 6 7 7 7 7 6 6 6 6 7 8 8 9 10 10 10 10 9 9
4 4 4 4 4 4 4 4 4 4 4 4 5 5 5 6 6 6 6 7 7 7 7 7 6 5 5 4 4 4 5 7 8 7 6 7 7 7 6 6 5 6 7 8 9 9 10 11 11 11 11 11 11 12
4 4 4 4 4 4 4 4 4 4 4 5 5 5 6 6 6 6 6 7 7 7 6 5 5 5 4 4 4 4 5 7 8 7 6 6 6 6 6 6 6 7 9 10 11 12 12 12 12 12 12 13 13 13
4 4 4 4 4 4 4 4 4 5 5 5 6 6 6 7 7 6 7 7 7 6 5 5 5 4 4 4 4 4 6 8 8 7 6 6 6 6 6 7 8 10 11 12 13 14 14 14 14 14 14 14 14 15
4 4 4 3 4 4 4 4 5 5 6 6 6 7 7 7 7 7 7 7 7 6 5 5 5 5 5 4 4 5 7 8 7 6 6 6 6 6 7 9 10 12 13 14 15 16 16 16 16 16 16 15 15 16
4 4 3 3 4 4 5 5 5 6 6 7 7 7 7 7 7 7 7 7 6 6 5 5 5 4 4 4 4 5 6 7 7 6 6 6 6 7 8 10 12 13 14 15 16 17 18 18 17 17 16 16 16 15
3 3 3 4 4 5 5 6 6 6 7 7 7 7 7 7 7 7 6 5 5 4 4 4 4 3 3 4 5 5 6 6 6 6 6 7 7 8 10 11 13 14 15 15 16 17 17 17 17 16 16 15 15 15
3 3 3 4 4 4 5 6 6 6 7 7 7 7 7 6 5 5 4 4 3 4 4 3 3 3 4 5 6 6 6 6 6 7 7 8 8 10 11 12 13 14 15 15 16 16 16 16 15 15 15 15 16 16
3 3 3 4 4 4 5 5 6 6 7 7 7 6 6 5 4 3 3 3 3 4 4 3 4 4 5 6 6 7 7 7 7 7 7 8 9 10 11 13 14 14 15 15 15 15 15 15 14 14 15 15 16 16